TimeMDT,TemperatureF,Dew PointF,Humidity,Sea Level PressureIn,VisibilityMPH,Wind Direction,Wind SpeedMPH,Gust SpeedMPH,PrecipitationIn,Events,Conditions,WindDirDegrees,DateUTC
12:00 AM,46,33,49,,,NNW,12.7,,,,,330,2013-10-21 06:00:00
12:00 AM,45.5,32.9,61,-9999,-9999.0,NNW,12.7,-,N/A,,Unknown,330,2013-10-21 06:00:00
1:00 AM,45.5,31.3,58,-9999,-9999.0,NW,13.8,-,N/A,,Unknown,310,2013-10-21 07:00:00
2:00 AM,48.2,31.3,52,-9999,-9999.0,WNW,18.4,-,N/A,,Unknown,290,2013-10-21 08:00:00
3:00 AM,48.2,31.3,52,-9999,-9999.0,West,16.1,-,N/A,,Unknown,280,2013-10-21 09:00:00
4:00 AM,46.9,31.3,55,-9999,-9999.0,West,12.7,-,N/A,,Unknown,280,2013-10-21 10:00:00
5:00 AM,46.6,31.3,55,-9999,-9999.0,WNW,15.0,-,N/A,,Unknown,290,2013-10-21 11:00:00
6:00 AM,47,33,45,,,WNW,16.1,,,,,290,2013-10-21 12:00:00
6:00 AM,47.3,31.5,54,-9999,-9999.0,WNW,16.1,-,N/A,,Unknown,290,2013-10-21 12:00:00
7:00 AM,44.2,31.5,61,-9999,-9999.0,WNW,10.4,-,N/A,,Unknown,300,2013-10-21 13:00:00
8:00 AM,40.6,31.3,69,-9999,-9999.0,West,9.2,-,N/A,,Unknown,280,2013-10-21 14:00:00
9:00 AM,41.5,34.7,77,-9999,-9999.0,West,4.6,-,N/A,,Unknown,280,2013-10-21 15:00:00
10:00 AM,51.3,35.6,55,-9999,-9999.0,West,4.6,-,0.02,,Unknown,280,2013-10-21 16:00:00
11:00 AM,56.7,36.0,46,-9999,-9999.0,WSW,5.8,-,N/A,,Unknown,250,2013-10-21 17:00:00
12:00 PM,59,36,30,,,SW,5.8,,,,,220,2013-10-21 18:00:00
12:00 PM,58.8,35.8,42,-9999,-9999.0,SW,5.8,-,N/A,,Unknown,220,2013-10-21 18:00:00
1:00 PM,60.1,35.6,40,-9999,-9999.0,West,6.9,-,N/A,,Unknown,260,2013-10-21 19:00:00
2:00 PM,62.2,37.2,39,-9999,-9999.0,SW,5.8,-,N/A,,Unknown,230,2013-10-21 20:00:00
3:00 PM,64.0,37.6,38,-9999,-9999.0,SSW,8.1,-,N/A,,Unknown,200,2013-10-21 21:00:00
4:00 PM,65.5,34.2,31,-9999,-9999.0,WSW,13.8,-,N/A,,Unknown,250,2013-10-21 22:00:00
5:00 PM,63.1,35.2,35,-9999,-9999.0,WSW,12.7,-,N/A,,Unknown,250,2013-10-21 23:00:00
6:00 PM,60,35,28,,,WSW,13.8,,,,,250,2013-10-22 00:00:00
6:00 PM,59.5,35.4,41,-9999,-9999.0,WSW,13.8,-,N/A,,Unknown,250,2013-10-22 00:00:00
7:00 PM,54.7,35.6,49,-9999,-9999.0,West,17.3,-,N/A,,Unknown,260,2013-10-22 01:00:00
8:00 PM,52.7,35.8,53,-9999,-9999.0,West,18.4,-,N/A,,Unknown,280,2013-10-22 02:00:00
9:00 PM,48.2,34.7,60,-9999,-9999.0,North,3.5,-,N/A,,Unknown,10,2013-10-22 03:00:00
10:00 PM,45.3,35.8,69,-9999,-9999.0,NW,11.5,-,N/A,,Unknown,310,2013-10-22 04:00:00
11:00 PM,41.9,33.6,72,-9999,-9999.0,WNW,6.9,-,N/A,,Unknown,300,2013-10-22 05:00:00